GW6059 Weather Reports


Display with metric or nautical units.
time (UTC)temp
F
wind
direction
speed
MPH
gust
MPH
rain 1hr
in
rain 24hr
in
rain mn
in
humidity
%
barometer
mb
20260504201512 77 126 4.0 13.0 0.00 0.00 0.00 41 1015.7
20260504200019 77 125 3.0 9.0 0.00 0.00 0.00 42 1015.9
20260504194502 78 120 2.0 9.0 0.00 0.00 0.00 41 1016.4
20260504193008 77 136 3.0 14.0 0.00 0.00 0.00 41 1016.3
20260504191514 78 210 2.0 5.0 0.00 0.00 0.00 43 1016.3
20260504190018 78 106 2.0 7.0 0.00 0.00 0.00 43 1016.6
20260504184531 78 245 2.0 6.0 0.00 0.00 0.00 43 1016.8
20260504183031 78 166 3.0 6.0 0.00 0.00 0.00 42 1016.8
20260504181509 78 320 1.0 6.0 0.00 0.00 0.00 42 1017.0
20260504180012 78 141 2.0 5.0 0.00 0.00 0.00 40 1017.1
20260504174520 78 144 3.0 6.0 0.00 0.00 0.00 45 1017.2
20260504173022 77 81 2.0 8.0 0.00 0.00 0.00 43 1017.1
20260504171507 78 274 3.0 5.0 0.00 0.00 0.00 42 1017.2
20260504081527 52 278 0.0 0.0 0.00 0.00 0.00 90 1017.4
20260504044525 54 127 0.0 0.0 0.00 0.00 0.00 88 1018.7
20260504043033 54 127 0.0 0.0 0.00 0.00 0.00 87 1018.9
20260504041517 55 127 0.0 0.0 0.00 0.00 0.00 87 1018.8
20260504040021 55 127 0.0 0.0 0.00 0.00 0.00 86 1018.7
20260504034526 56 127 0.0 0.0 0.00 0.00 0.00 85 1018.8
20260504033028 56 127 0.0 0.0 0.00 0.00 0.00 85 1019.0
20260504031516 56 127 0.0 3.0 0.00 0.00 0.00 84 1019.1
20260504030003 57 120 0.0 0.0 0.00 0.00 0.00 83 1018.7
20260504024525 57 120 0.0 0.0 0.00 0.00 0.00 82 1018.6
20260504023012 58 120 0.0 0.0 0.00 0.00 0.00 80 1018.7
20260504021537 59 120 0.0 0.0 0.00 0.00 0.00 78 1018.5
20260504020032 59 120 0.0 0.0 0.00 0.00 0.00 78 1018.4
20260504014506 60 120 0.0 0.0 0.00 0.00 0.00 74 1018.3
20260504013006 61 120 0.0 0.0 0.00 0.00 0.00 71 1018.1
20260504011510 63 120 0.0 0.0 0.00 0.00 0.00 66 1018.0
20260504010018 64 120 0.0 0.0 0.00 0.00 0.00 62 1018.0
20260504004536 66 120 0.0 0.0 0.00 0.00 0.00 59 1017.9
20260504003005 68 120 0.0 1.0 0.00 0.00 0.00 55 1017.8
20260504001534 71 120 0.0 0.0 0.00 0.00 0.00 51 1017.8
20260504000016 75 120 0.0 1.0 0.00 0.00 0.00 47 1017.8
20260503213031 78 306 0.0 4.0 0.00 0.00 0.00 38 1018.5
20260503211523 77 36 1.0 6.0 0.00 0.00 0.00 39 1018.7
20260503210024 76 176 2.0 5.0 0.00 0.00 0.00 39 1018.9
20260503204524 76 316 0.0 5.0 0.00 0.00 0.00 32 1019.2
20260503203020 75 81 1.0 8.0 0.00 0.00 0.00 32 1019.3